Location: Melara
(45.0500°N, 11.1833°E)
Time: 23:09:27
(UTC+00:00)

ADEOS II - Pass Details

Date: 26 May 2022
Orbit: 799 x 800 km, 98.6° (Epoch: 02 July)

Event Time Altitude Azimuth Distance (km) Brightness Sun altitude
Rises 01:37:40 0° 12° (NNE) 3,318 6.6 -16.0°
Reaches altitude 10° 01:40:01 10° 11° (N) 2,383 5.6 -15.8°
Maximum altitude 01:45:16 77° 287° (WNW) 825 2.1 -15.2°
Enters shadow 01:48:44 22° 204° (SSW) 1,692 3.2 -14.9°
